QPF
0.13 0.12 0.10 0.08 0.06 0.06 0.05 0.06 0.06 0.06 0.06 0.07 0.06 0.06 0.09 0.09 0.07 0.03 0.05 0.03 0.02 0.01 0.02 0.02 0.01 0.01 0.01 0.02 0.02 0.03 0.04 0.05 0.06 0.07 0.07 0.07 0.08 0.09
0.12 0.12 0.10 0.08 0.08 0.07 0.07 0.07 0.07 0.08 0.08 0.08 0.08 0.06 0.06 0.06 0.04 0.04 0.06 0.05 0.03 0.02 0.02 0.02 0.02 0.01 0.02 0.02 0.03 0.03 0.03 0.03 0.04 0.05 0.07 0.07 0.06 0.07
0.11 0.11 0.10 0.08 0.07 0.07 0.07 0.07 0.07 0.08 0.09 0.08 0.09 0.08 0.08 0.06 0.06 0.06 0.06 0.06 0.03 0.02 0.02 0.02 0.03 0.03 0.03 0.03 0.04 0.03 0.03 0.03 0.04 0.04 0.05 0.05 0.05 0.06
0.10 0.09 0.08 0.07 0.06 0.07 0.08 0.08 0.08 0.08 0.09 0.09 0.09 0.10 0.10 0.09 0.07 0.07 0.06 0.05 0.04 0.03 0.02 0.02 0.02 0.03 0.04 0.04 0.04 0.05 0.05 0.04 0.03 0.04 0.04 0.04 0.05 0.05
0.08 0.08 0.07 0.07 0.07 0.08 0.09 0.10 0.11 0.10 0.10 0.10 0.09 0.10 0.11 0.11 0.11 0.08 0.06 0.06 0.04 0.03 0.03 0.03 0.03 0.02 0.03 0.04 0.05 0.06 0.06 0.05 0.04 0.03 0.03 0.05 0.06 0.06
0.08 0.08 0.07 0.06 0.05 0.05 0.06 0.08 0.09 0.10 0.10 0.10 0.09 0.09 0.11 0.12 0.12 0.10 0.08 0.08 0.06 0.04 0.03 0.03 0.04 0.06 0.05 0.04 0.05 0.04 0.04 0.04 0.03 0.03 0.03 0.04 0.05 0.06
0.08 0.07 0.05 0.04 0.03 0.03 0.03 0.03 0.05 0.07 0.07 0.08 0.09 0.08 0.09 0.10 0.10 0.09 0.08 0.07 0.06 0.05 0.04 0.03 0.03 0.03 0.05 0.05 0.06 0.04 0.03 0.03 0.03 0.03 0.04 0.05 0.05 0.06
0.05 0.04 0.03 0.03 0.03 0.02 0.02 0.02 0.02 0.03 0.05 0.06 0.08 0.08 0.08 0.08 0.08 0.08 0.08 0.07 0.05 0.06 0.05 0.04 0.04 0.04 0.04 0.06 0.08 0.07 0.05 0.04 0.04 0.04 0.05 0.06 0.06 0.06
0.05 0.04 0.03 0.02 0.02 0.02 0.02 0.03 0.02 0.02 0.03 0.04 0.06 0.06 0.07 0.06 0.07 0.07 0.07 0.06 0.05 0.05 0.06 0.05 0.04 0.04 0.04 0.05 0.07 0.07 0.06 0.05 0.04 0.04 0.05 0.06 0.07 0.07
0.06 0.05 0.04 0.03 0.03 0.03 0.04 0.05 0.04 0.05 0.05 0.04 0.05 0.06 0.05 0.06 0.06 0.06 0.05 0.05 0.05 0.05 0.05 0.05 0.05 0.05 0.05 0.07 0.06 0.06 0.05 0.05 0.04 0.04 0.05 0.05 0.06 0.06
0.03 0.02 0.02 0.02 0.03 0.03 0.04 0.05 0.05 0.05 0.03 0.02 0.02 0.03 0.03 0.03 0.03 0.03 0.03 0.04 0.05 0.04 0.04 0.05 0.04 0.04 0.05 0.07 0.07 0.05 0.05 0.04 0.04 0.04 0.04 0.05 0.05 0.05
0.03 0.02 0.02 0.02 0.02 0.03 0.04 0.05 0.05 0.04 0.03 0.03 0.02 0.02 0.02 0.02 0.01 0.02 0.02 0.03 0.04 0.04 0.04 0.05 0.04 0.04 0.04 0.05 0.06 0.06 0.05 0.05 0.04 0.03 0.04 0.05 0.04 0.04
0.03 0.02 0.02 0.02 0.02 0.02 0.02 0.03 0.02 0.02 0.02 0.03 0.04 0.04 0.04 0.03 0.02 0.03 0.04 0.03 0.04 0.03 0.03 0.04 0.05 0.06 0.06 0.05 0.05 0.06 0.06 0.05 0.04 0.03 0.03 0.05 0.05 0.03
0.02 0.02 0.01 0.01 0.01 0.01 0.01 0.01 0.01 0.01 0.02 0.02 0.03 0.04 0.03 0.03 0.03 0.03 0.03 0.04 0.04 0.02 0.02 0.04 0.05 0.06 0.07 0.07 0.06 0.05 0.05 0.05 0.05 0.05 0.04 0.05 0.07 0.05
0.02 0.01 0.01 0.01 0.01 0.01 0.01 0.00 0.01 0.01 0.02 0.03 0.03 0.03 0.02 0.03 0.03 0.04 0.03 0.04 0.04 0.03 0.01 0.03 0.04 0.05 0.08 0.08 0.07 0.07 0.07 0.06 0.05 0.07 0.07 0.05 0.06 0.08
0.02 0.01 0.01 0.01 0.01 0.01 0.01 0.02 0.02 0.02 0.02 0.02 0.02 0.02 0.02 0.02 0.03 0.03 0.04 0.04 0.04 0.03 0.02 0.03 0.04 0.06 0.06 0.06 0.07 0.08 0.09 0.08 0.07 0.07 0.08 0.09 0.07 0.08
0.01 0.02 0.03 0.03 0.03 0.03 0.02 0.03 0.03 0.03 0.03 0.03 0.03 0.02 0.02 0.02 0.02 0.03 0.03 0.03 0.04 0.04 0.04 0.03 0.04 0.05 0.05 0.06 0.07 0.07 0.09 0.10 0.08 0.07 0.09 0.08 0.07 0.06
0.01 0.02 0.03 0.03 0.03 0.03 0.02 0.02 0.02 0.02 0.02 0.02 0.02 0.03 0.03 0.03 0.02 0.02 0.02 0.03 0.03 0.04 0.04 0.04 0.05 0.07 0.07 0.06 0.05 0.07 0.08 0.08 0.08 0.08 0.08 0.07 0.06 0.05
0.02 0.03 0.05 0.05 0.04 0.03 0.02 0.02 0.02 0.02 0.03 0.02 0.02 0.03 0.03 0.04 0.03 0.03 0.03 0.03 0.02 0.02 0.02 0.03 0.05 0.08 0.09 0.08 0.04 0.04 0.05 0.06 0.08 0.09 0.08 0.07 0.05 0.05
0.03 0.03 0.04 0.04 0.03 0.02 0.02 0.02 0.03 0.03 0.04 0.03 0.03 0.03 0.04 0.04 0.04 0.03 0.03 0.03 0.03 0.03 0.03 0.03 0.05 0.08 0.10 0.09 0.07 0.05 0.03 0.04 0.06 0.08 0.08 0.07 0.05 0.05
0.02 0.02 0.03 0.03 0.02 0.02 0.02 0.02 0.02 0.03 0.03 0.03 0.03 0.03 0.04 0.03 0.03 0.03 0.03 0.03 0.04 0.04 0.05 0.05 0.05 0.05 0.07 0.09 0.07 0.07 0.05 0.04 0.05 0.05 0.06 0.08 0.08 0.07
0.01 0.01 0.01 0.01 0.01 0.01 0.01 0.02 0.02 0.02 0.02 0.02 0.02 0.03 0.03 0.03 0.04 0.04 0.04 0.05 0.06 0.06 0.06 0.06 0.06 0.07 0.07 0.08 0.08 0.07 0.07 0.05 0.05 0.05 0.05 0.06 0.07 0.06
0.01 0.01 0.01 0.01 0.01 0.01 0.01 0.02 0.02 0.02 0.03 0.02 0.02 0.03 0.03 0.03 0.04 0.04 0.05 0.05 0.05 0.06 0.07 0.06 0.07 0.08 0.08 0.08 0.08 0.07 0.05 0.05 0.06 0.06 0.04 0.04 0.05 0.04
MSLP
1006.61 1007.02 1007.40 1007.72 1007.98 1008.18 1008.34 1008.48 1008.64 1008.82 1009.03 1009.24 1009.44 1009.58 1009.63 1009.55 1009.34 1009.00 1008.57 1008.10 1007.63 1007.22 1006.92 1006.75 1006.73 1006.85 1007.10 1007.46 1007.90 1008.41 1008.97 1009.58 1010.24 1010.94 1011.68 1012.46 1013.26 1014.07
1006.42 1006.78 1007.12 1007.41 1007.65 1007.85 1008.03 1008.20 1008.38 1008.59 1008.81 1009.04 1009.24 1009.37 1009.42 1009.35 1009.15 1008.83 1008.42 1007.97 1007.51 1007.11 1006.79 1006.60 1006.54 1006.62 1006.82 1007.13 1007.54 1008.02 1008.56 1009.15 1009.79 1010.47 1011.20 1011.95 1012.74 1013.53
1006.33 1006.67 1006.98 1007.25 1007.48 1007.69 1007.87 1008.05 1008.24 1008.45 1008.67 1008.88 1009.06 1009.19 1009.23 1009.16 1008.98 1008.70 1008.33 1007.91 1007.49 1007.11 1006.81 1006.60 1006.52 1006.56 1006.72 1006.98 1007.34 1007.78 1008.28 1008.83 1009.44 1010.08 1010.76 1011.47 1012.20 1012.95
1006.36 1006.70 1007.00 1007.27 1007.51 1007.71 1007.90 1008.08 1008.26 1008.45 1008.64 1008.82 1008.98 1009.08 1009.10 1009.04 1008.88 1008.63 1008.31 1007.95 1007.58 1007.24 1006.96 1006.76 1006.66 1006.67 1006.79 1007.01 1007.32 1007.70 1008.14 1008.64 1009.18 1009.76 1010.37 1011.01 1011.66 1012.34
1006.53 1006.89 1007.20 1007.48 1007.72 1007.93 1008.12 1008.29 1008.46 1008.61 1008.76 1008.90 1009.00 1009.06 1009.07 1009.00 1008.86 1008.65 1008.39 1008.09 1007.78 1007.48 1007.23 1007.05 1006.95 1006.94 1007.02 1007.19 1007.45 1007.77 1008.15 1008.58 1009.04 1009.53 1010.05 1010.58 1011.14 1011.71
1006.84 1007.22 1007.55 1007.85 1008.10 1008.32 1008.50 1008.66 1008.79 1008.91 1009.01 1009.08 1009.13 1009.15 1009.13 1009.05 1008.93 1008.76 1008.54 1008.30 1008.05 1007.82 1007.61 1007.45 1007.35 1007.33 1007.38 1007.51 1007.71 1007.97 1008.28 1008.62 1009.00 1009.40 1009.81 1010.23 1010.66 1011.11
1007.25 1007.65 1008.01 1008.31 1008.58 1008.79 1008.97 1009.10 1009.21 1009.28 1009.32 1009.34 1009.34 1009.30 1009.25 1009.17 1009.05 1008.91 1008.75 1008.57 1008.38 1008.20 1008.03 1007.90 1007.82 1007.79 1007.81 1007.90 1008.05 1008.25 1008.49 1008.77 1009.05 1009.35 1009.66 1009.96 1010.27 1010.59
1007.73 1008.14 1008.50 1008.81 1009.08 1009.29 1009.45 1009.56 1009.63 1009.66 1009.65 1009.61 1009.55 1009.48 1009.40 1009.30 1009.20 1009.09 1008.97 1008.84 1008.71 1008.58 1008.46 1008.36 1008.28 1008.25 1008.26 1008.32 1008.43 1008.57 1008.76 1008.96 1009.17 1009.39 1009.59 1009.79 1009.99 1010.19
1008.24 1008.64 1008.99 1009.29 1009.53 1009.73 1009.88 1009.97 1010.00 1009.99 1009.93 1009.85 1009.75 1009.64 1009.53 1009.43 1009.34 1009.25 1009.16 1009.08 1009.00 1008.91 1008.82 1008.75 1008.68 1008.65 1008.65 1008.68 1008.75 1008.86 1009.00 1009.15 1009.30 1009.45 1009.59 1009.71 1009.82 1009.93
1008.74 1009.10 1009.41 1009.68 1009.91 1010.09 1010.21 1010.27 1010.28 1010.23 1010.14 1010.02 1009.89 1009.75 1009.63 1009.52 1009.43 1009.36 1009.31 1009.25 1009.20 1009.15 1009.09 1009.03 1008.97 1008.94 1008.92 1008.93 1008.98 1009.05 1009.15 1009.26 1009.38 1009.49 1009.58 1009.65 1009.71 1009.77
1009.20 1009.50 1009.77 1010.00 1010.19 1010.34 1010.44 1010.48 1010.46 1010.39 1010.28 1010.14 1009.98 1009.83 1009.69 1009.58 1009.49 1009.43 1009.39 1009.36 1009.33 1009.29 1009.24 1009.18 1009.13 1009.08 1009.04 1009.03 1009.05 1009.10 1009.17 1009.26 1009.35 1009.43 1009.50 1009.56 1009.60 1009.63
1009.61 1009.84 1010.05 1010.24 1010.40 1010.51 1010.59 1010.61 1010.58 1010.49 1010.36 1010.21 1010.04 1009.88 1009.74 1009.62 1009.53 1009.47 1009.44 1009.41 1009.38 1009.34 1009.29 1009.22 1009.15 1009.08 1009.02 1008.99 1008.97 1008.99 1009.03 1009.10 1009.17 1009.25 1009.31 1009.37 1009.41 1009.45
1009.98 1010.14 1010.29 1010.43 1010.55 1010.64 1010.69 1010.70 1010.66 1010.57 1010.44 1010.28 1010.11 1009.94 1009.80 1009.68 1009.58 1009.52 1009.47 1009.43 1009.39 1009.34 1009.27 1009.18 1009.09 1008.99 1008.90 1008.82 1008.78 1008.76 1008.77 1008.80 1008.85 1008.92 1008.98 1009.05 1009.11 1009.16
1010.31 1010.41 1010.51 1010.60 1010.69 1010.75 1010.79 1010.79 1010.74 1010.65 1010.53 1010.37 1010.21 1010.04 1009.89 1009.76 1009.66 1009.58 1009.51 1009.46 1009.39 1009.31 1009.22 1009.11 1008.98 1008.85 1008.72 1008.60 1008.51 1008.45 1008.42 1008.41 1008.43 1008.48 1008.53 1008.60 1008.66 1008.74
1010.62 1010.67 1010.72 1010.78 1010.83 1010.88 1010.90 1010.89 1010.85 1010.77 1010.65 1010.51 1010.35 1010.19 1010.03 1009.90 1009.78 1009.68 1009.59 1009.51 1009.41 1009.31 1009.18 1009.04 1008.88 1008.71 1008.54 1008.38 1008.24 1008.13 1008.05 1008.00 1007.98 1007.98 1008.01 1008.06 1008.13 1008.21
1010.91 1010.92 1010.94 1010.96 1010.99 1011.02 1011.04 1011.03 1010.99 1010.91 1010.80 1010.67 1010.52 1010.37 1010.21 1010.07 1009.93 1009.81 1009.70 1009.58 1009.46 1009.32 1009.17 1009.00 1008.80 1008.60 1008.40 1008.20 1008.02 1007.86 1007.72 1007.62 1007.55 1007.52 1007.51 1007.53 1007.58 1007.65
1011.20 1011.17 1011.16 1011.16 1011.17 1011.19 1011.19 1011.18 1011.14 1011.07 1010.97 1010.85 1010.71 1010.56 1010.40 1010.24 1010.09 1009.95 1009.81 1009.67 1009.52 1009.35 1009.17 1008.98 1008.76 1008.54 1008.31 1008.08 1007.86 1007.66 1007.48 1007.33 1007.21 1007.13 1007.08 1007.07 1007.09 1007.15
1011.47 1011.42 1011.39 1011.37 1011.36 1011.36 1011.35 1011.33 1011.29 1011.23 1011.14 1011.02 1010.88 1010.73 1010.56 1010.39 1010.23 1010.06 1009.89 1009.73 1009.55 1009.36 1009.16 1008.95 1008.72 1008.48 1008.23 1007.99 1007.75 1007.52 1007.31 1007.13 1006.98 1006.86 1006.78 1006.74 1006.74 1006.79
1011.74 1011.68 1011.63 1011.59 1011.56 1011.54 1011.52 1011.49 1011.45 1011.38 1011.28 1011.16 1011.02 1010.86 1010.68 1010.50 1010.31 1010.12 1009.93 1009.73 1009.53 1009.32 1009.10 1008.88 1008.64 1008.39 1008.14 1007.88 1007.64 1007.40 1007.18 1006.98 1006.82 1006.69 1006.60 1006.55 1006.55 1006.60
1012.01 1011.94 1011.87 1011.82 1011.77 1011.74 1011.70 1011.65 1011.59 1011.51 1011.41 1011.28 1011.12 1010.95 1010.75 1010.54 1010.33 1010.11 1009.88 1009.66 1009.43 1009.20 1008.96 1008.72 1008.47 1008.22 1007.97 1007.72 1007.47 1007.24 1007.03 1006.84 1006.69 1006.57 1006.50 1006.47 1006.50 1006.56
1012.28 1012.21 1012.13 1012.06 1012.00 1011.95 1011.89 1011.83 1011.75 1011.65 1011.53 1011.38 1011.20 1011.00 1010.78 1010.54 1010.29 1010.04 1009.78 1009.52 1009.26 1009.00 1008.74 1008.48 1008.22 1007.96 1007.70 1007.46 1007.22 1007.00 1006.81 1006.64 1006.52 1006.45 1006.42 1006.44 1006.52 1006.63
1012.56 1012.48 1012.40 1012.32 1012.25 1012.18 1012.11 1012.03 1011.93 1011.81 1011.66 1011.48 1011.27 1011.04 1010.78 1010.51 1010.22 1009.93 1009.64 1009.34 1009.05 1008.76 1008.47 1008.19 1007.91 1007.63 1007.37 1007.12 1006.88 1006.68 1006.51 1006.39 1006.31 1006.29 1006.32 1006.41 1006.55 1006.74
1012.82 1012.75 1012.67 1012.60 1012.52 1012.45 1012.36 1012.26 1012.14 1011.99 1011.81 1011.60 1011.36 1011.08 1010.79 1010.47 1010.15 1009.82 1009.49 1009.16 1008.83 1008.51 1008.20 1007.89 1007.59 1007.29 1007.01 1006.76 1006.53 1006.34 1006.19 1006.10 1006.07 1006.10 1006.20 1006.36 1006.57 1006.82
Thickness
5640 5639 5638 5637 5637 5637 5636 5635 5631 5631 5635 5641 5644 5648 5649 5648 5648 5649 5650 5650 5650 5650 5650 5651 5653 5655 5656 5657 5658 5659 5659 5660 5661 5661 5661 5661 5662 5662
5636 5634 5633 5633 5632 5632 5632 5632 5631 5629 5629 5635 5638 5641 5642 5642 5642 5643 5644 5645 5644 5645 5645 5646 5648 5649 5649 5650 5651 5652 5653 5654 5655 5655 5654 5655 5655 5655
5632 5630 5629 5628 5627 5627 5628 5628 5628 5627 5626 5631 5633 5634 5635 5634 5635 5636 5638 5639 5639 5639 5640 5641 5641 5642 5643 5643 5644 5645 5646 5647 5648 5648 5648 5648 5648 5649
5627 5626 5625 5624 5623 5623 5623 5623 5623 5623 5622 5623 5626 5627 5628 5628 5629 5629 5631 5633 5633 5634 5635 5635 5636 5636 5637 5637 5638 5638 5639 5640 5641 5641 5642 5642 5643 5642
5625 5623 5622 5621 5619 5618 5617 5618 5618 5620 5619 5618 5619 5620 5621 5622 5622 5622 5624 5625 5627 5628 5629 5630 5630 5630 5631 5631 5631 5632 5632 5633 5633 5634 5635 5636 5636 5636
5622 5620 5619 5617 5615 5613 5612 5612 5612 5613 5613 5613 5612 5613 5613 5615 5614 5614 5615 5617 5619 5623 5623 5624 5624 5624 5624 5625 5625 5626 5626 5626 5626 5627 5628 5629 5629 5630
5619 5617 5615 5614 5612 5609 5608 5607 5606 5606 5606 5606 5606 5606 5606 5606 5606 5608 5608 5610 5612 5615 5615 5617 5617 5618 5617 5618 5619 5619 5620 5620 5620 5621 5622 5622 5623 5623
5615 5614 5612 5611 5608 5606 5604 5603 5602 5601 5600 5600 5600 5599 5599 5600 5601 5601 5601 5602 5604 5608 5608 5609 5611 5611 5613 5613 5615 5615 5615 5615 5615 5615 5616 5616 5617 5617
5612 5610 5609 5608 5606 5604 5601 5600 5598 5597 5595 5594 5594 5593 5594 5595 5595 5595 5595 5596 5598 5601 5601 5602 5604 5605 5608 5609 5610 5610 5610 5609 5609 5610 5610 5611 5611 5611
5609 5607 5605 5603 5602 5599 5598 5596 5594 5593 5593 5591 5591 5591 5591 5591 5590 5590 5590 5591 5594 5596 5597 5595 5598 5600 5603 5603 5604 5604 5604 5604 5604 5604 5605 5605 5605 5605
5607 5604 5602 5599 5596 5594 5593 5591 5590 5589 5590 5589 5588 5588 5587 5586 5586 5584 5584 5585 5586 5590 5592 5591 5593 5595 5596 5597 5598 5598 5599 5599 5599 5599 5599 5599 5599 5598
5602 5600 5597 5595 5592 5589 5588 5586 5585 5585 5585 5585 5584 5584 5584 5584 5583 5581 5581 5581 5582 5583 5587 5586 5587 5587 5588 5591 5592 5592 5592 5592 5593 5593 5593 5593 5592 5590
5597 5596 5593 5590 5589 5586 5584 5582 5581 5580 5580 5580 5581 5582 5583 5583 5582 5582 5581 5580 5578 5579 5582 5581 5581 5581 5581 5583 5586 5587 5587 5587 5587 5588 5588 5588 5587 5586
5593 5592 5590 5587 5585 5583 5582 5581 5579 5576 5576 5577 5578 5579 5580 5580 5581 5581 5580 5579 5579 5578 5579 5577 5575 5575 5574 5575 5578 5581 5583 5584 5584 5585 5585 5585 5583 5582
5590 5588 5586 5584 5582 5582 5581 5579 5576 5575 5575 5575 5575 5577 5578 5579 5579 5578 5578 5577 5577 5577 5577 5576 5574 5573 5571 5571 5573 5575 5576 5579 5581 5581 5581 5580 5580 5578
5587 5585 5584 5584 5582 5581 5580 5579 5577 5575 5574 5573 5573 5574 5575 5575 5574 5574 5573 5573 5572 5573 5574 5574 5573 5571 5569 5569 5568 5570 5572 5573 5575 5577 5577 5577 5577 5577
5581 5582 5583 5583 5582 5581 5580 5579 5577 5575 5573 5572 5571 5570 5570 5570 5570 5570 5569 5569 5567 5567 5568 5570 5570 5569 5568 5566 5564 5566 5567 5569 5570 5571 5571 5572 5573 5574
5578 5580 5580 5579 5579 5578 5577 5575 5574 5572 5570 5569 5567 5566 5566 5566 5566 5566 5565 5564 5563 5564 5564 5564 5564 5563 5562 5563 5563 5562 5563 5565 5567 5568 5568 5567 5568 5570
5577 5578 5577 5576 5575 5575 5573 5571 5569 5568 5566 5565 5563 5562 5562 5561 5561 5561 5561 5560 5560 5560 5560 5560 5559 5556 5553 5554 5559 5560 5559 5560 5562 5562 5563 5563 5564 5565
5578 5576 5575 5573 5571 5570 5569 5567 5566 5564 5562 5560 5559 5558 5557 5556 5556 5555 5554 5554 5554 5554 5555 5556 5555 5553 5550 5551 5553 5555 5556 5556 5556 5556 5556 5557 5557 5559
5577 5575 5573 5570 5568 5566 5565 5563 5561 5559 5557 5555 5553 5552 5551 5550 5549 5549 5549 5548 5548 5549 5549 5550 5551 5551 5550 5549 5547 5549 5551 5551 5551 5551 5550 5549 5549 5550
5575 5573 5570 5567 5565 5562 5561 5558 5556 5554 5552 5549 5547 5546 5545 5545 5544 5543 5543 5543 5543 5543 5544 5546 5547 5546 5544 5542 5542 5543 5544 5544 5544 5545 5544 5544 5542 5542
5573 5570 5567 5564 5561 5559 5556 5553 5550 5547 5544 5542 5540 5539 5539 5539 5539 5539 5539 5538 5538 5538 5539 5540 5540 5539 5539 5538 5538 5538 5538 5537 5537 5536 5535 5536 5536 5536